Skip Page Navigation
NASA JPL Caltech
NASA Logo - Jet Propulsion Laboratory + View the NASA Portal
+ Center for Near-Earth Object Studies
JPL Home Earth Solar System Stars & Galaxies Technology
JPL Solar System Dynamics
BODIES ORBITS EPHEMERIDES TOOLS PHYSICAL DATA DISCOVERY FAQ SITE MAP
JPL Small-Body Database Browser
Search: [ help ]  
214138 (2005 AH35)
Classification: Main-belt Asteroid          SPK-ID: 2214138
Ephemeris | Orbit Diagram | Orbital Elements | Mission Design | Physical Parameters | Discovery Circumstances | Close-Approach Data ]

[ show orbit diagram ]
Orbital Elements at Epoch 2459000.5 (2020-May-31.0) TDB
Reference: JPL 17 (heliocentric ecliptic J2000)
 Element Value Uncertainty (1-sigma)   Units 
e .1006635312521045 3.6774e-08  
a 2.307871088416765 1.1623e-08 au
q 2.075552634982095 8.4151e-08 au
i 6.601234663892841 4.5576e-06 deg
node 130.7309075176541 3.7189e-05 deg
peri 323.5632711395342 4.6783e-05 deg
M 155.3214891071438 2.6929e-05 deg
tp 2458447.984085761717
(2018-Nov-25.48408576)
9.4739e-05 TDB
period 1280.606632534747
3.51
9.674e-06
2.649e-08
d
yr
n .2811167698604216 2.1236e-09 deg/d
Q 2.540189541851434 1.2793e-08 au
  Orbit Determination Parameters
   # obs. used (total)      401  
   data-arc span      6756 days (18.50 yr)  
   first obs. used      2000-10-02  
   last obs. used      2019-04-02  
   planetary ephem.      DE431  
   SB-pert. ephem.      SB431-N16  
   condition code      0  
   norm. resid. RMS      .58588  
   source      ORB  
   producer      Otto Matic  
   solution date      2019-Jul-13 22:11:51  

Additional Information
 Earth MOID = 1.0964 au 
 Jupiter MOID = 2.58678 au 
 T_jup = 3.571 
[ show covariance matrix ]

Ephemeris | Orbit Diagram | Orbital Elements | Mission Design | Physical Parameters | Discovery Circumstances | Close-Approach Data ]

Physical Parameter Table
Parameter Symbol Value Units Sigma Reference Notes
absolute magnitude H 16.8   n/a MPO470298  

214138 (2005 AH35)          Discovered 2005-Jan-13 by LINEAR at Socorro
Reference: 20090509/Numbers.arcLast Updated: 2009-05-11

[ show close-approach data ]
Ephemeris | Orbit Diagram | Orbital Elements | Mission Design | Physical Parameters | Discovery Circumstances | Close-Approach Data ]
ABOUT SSD CREDITS/AWARDS PRIVACY/COPYRIGHT GLOSSARY LINKS
FirstGov 2020-Aug-09 15:47 UT
(server date/time)  
NASA Home Page
Site Manager:   Ryan S. Park
Webmaster  Alan B. Chamberlin